Flock 4g-32

operational
NORAD ID: 62643 Int'l Des: 2025-009 Owner: PLAN Country: US
LEOCIRCULARRETROGRADESSO

About Flock 4g-32

Description loading...

Live Position

Loading 3D Globe...

Upcoming Passes

Altitude History

Altitude vs Time

uPlot chart will show altitude changes over time

Two-Line Element Set

1 62643U 25009AL 25276.20191167 .00096371 00000-0 37886-2 0 9996
2 62643 97.4171 354.9608 0002144 166.4344 193.6952 15.25264247 39708
Epoch: Oct 3, 2025 • Age: 43 hours

Current Status

Altitude 493.1 km
Velocity 7.62 km/s
Sub-Earth Point 38.68°N, 169.23°E
Launch Date Jan 14, 2025
Age 0.7 years
Type other

Technical Details

Classification Payload
Mass 5.70 kg
Dry Mass 5.70 kg
Total Mass 5.70 kg
Length 0.30 m
Diameter 0.10 m
Span 0.30 m
Shape Box+2 pan
Manufacturer PLAN
Bus Type Cubesat 3U
Phase Status In Orbit
Owner/State PLAN/US

Large Constellations

Loading constellations...